{"data":{"norad_id":57738,"epoch":"2026-05-25T03:45:50.949216Z","epoch_age_seconds":64527,"freshness":"FRESH","line1":"1 57738U 23131G   26145.15683969  .00000528  00000+0  28704-4 0  9994","line2":"2 57738  43.0018 100.3945 0001605 267.7654  92.3014 15.27578955151616","mean_motion":15.27578955,"eccentricity":0.0001605,"inclination_deg":43.0018,"raan_deg":100.3945,"arg_perigee_deg":267.7654,"mean_anomaly_deg":92.3014,"bstar":2.8704e-5,"rev_number":15161,"period_min":94.2668132005,"perigee_km":481.95100427674,"apogee_km":484.15344601801,"semimajor_km":6861.1892251474,"source":"CELESTRAK","updated_at":"2026-05-25T13:38:18.398882Z"}}